Volver al catálogo

SL-8 R/B

ActivoLEO
NORAD 15006·ROCKET BODY·🇷🇺 Russia

Lanzado May 28, 1984 desde Plesetsk Cosmodrome

Loading…

Próximos Pases (próximas 24 horas)

TLE

ActualizadoSource: Space-Track

Época: Sep 14, 2026, 23:35 UTC

1 15006U 84052J   26257.98264248 -.00000072  00000-0 -51300-3 0  9999
2 15006  74.0091 100.6072 0132391 155.0478  22.5838 12.23753461889614

Sigue SL-8 R/B en tiempo real con AllMySat

Download on the App Store